ELECTRON R/B (52428 NORAD) Tracking and Keplerian Element Data

This shows tracking and keplerian element data for the satellite.

Feedback or suggestion? Click here.




ElementValue
Catalog52428
NameELECTRON R/B
Epoch Orbit389
Epoch Day138.3632076
Epoch Year2022
RAAN225.6183
Inclination97.4121
Eccentricity0.0047953
Argument of Perigee218.1246
Mean Anonmoly217.623
Mean Motion16.42693217
Decay Rate0.24977271
L11 52428U 22047AL 22138.36320760 .24977271 19915-5 38220-3 0 9996
L22 52428 97.4121 225.6183 0047953 218.1246 217.6230 16.42693217 3898

Live tracking and technical data element details for ELECTRON R/B (NORAD 52428). ELECTRON R/B can be tracked NOW for your location showing map with azimuth and elevation plus other details from your city location.

Track the satellite on the map from your city or location and see movement details for azimuth, elevation, latitude, longitude, range, height, and movement on the map or in text.







IsCatalogInMostPopularTable: catalog: 52428, numindb: 3
Update: records affected: 1



GetName: 52428 ELECTRON R/B

Hit Count: updated at: Sat, 13 Aug 2022 23:44:22 GMT